When you browse on this site, cookies collect data to enhance your experience and personalize the content and advertising you see.
Visit our Privacy Policy to learn more. By continuing to use the site, you agree to this use of cookies and data.
  • In United Kingdom
  • List of Countries
  • For 7 days
  • Water Temperature
  • Satellite Maps
  • Weather Map
  • Weather Widgets
  • user-avatar
    Login

    Hourly Weather Inverclyde

    Today, 20 June, Thursday

    Time Temperature Precipitation Wind Pressure Humidity
    00:00 +9°C° 0 mm 2 mps 751 mmHg 88%
    01:00 +9°C° 0 mm 2 mps 750 mmHg 89%
    02:00 +9°C° 0 mm 2 mps 750 mmHg 90%
    03:00 +8°C° 0 mm 2 mps 750 mmHg 91%
    04:00 +9°C° 0 mm 2 mps 750 mmHg 86%
    05:00 +10°C° 0 mm 3 mps 749 mmHg 82%
    06:00 +11°C° 0 mm 3 mps 749 mmHg 77%
    07:00 +11°C° 0 mm 4 mps 749 mmHg 73%
    08:00 +12°C° 0 mm 4 mps 750 mmHg 68%
    09:00 +13°C° 0 mm 5 mps 750 mmHg 64%
    10:00 +13°C° 0.2 mm 5 mps 750 mmHg 68%
    11:00 +13°C° 0.2 mm 5 mps 750 mmHg 72%
    12:00 +13°C° 0.2 mm 5 mps 750 mmHg 76%
    13:00 +13°C° 0.1 mm 6 mps 751 mmHg 72%
    14:00 +13°C° 0.1 mm 6 mps 751 mmHg 67%
    15:00 +14°C° 0.1 mm 7 mps 751 mmHg 63%
    16:00 +12°C° 0 mm 7 mps 752 mmHg 63%
    17:00 +12°C° 0 mm 7 mps 752 mmHg 63%
    18:00 +11°C° 0 mm 7 mps 752 mmHg 64%
    19:00 +10°C° 0 mm 6 mps 753 mmHg 70%
    20:00 +9°C° 0 mm 5 mps 753 mmHg 75%
    21:00 +8°C° 0 mm 4 mps 754 mmHg 81%
    22:00 +8°C° 0.1 mm 4 mps 754 mmHg 82%
    23:00 +8°C° 0.1 mm 4 mps 755 mmHg 84%

    Tomorrow, 21 June, Friday

    Time Temperature Precipitation Wind Pressure Humidity
    00:00 +8°C° 0.1 mm 4 mps 755 mmHg 85%
    01:00 +7°C° 0 mm 4 mps 755 mmHg 86%
    02:00 +7°C° 0 mm 4 mps 756 mmHg 87%
    03:00 +6°C° 0 mm 4 mps 756 mmHg 88%
    04:00 +7°C° 0 mm 4 mps 756 mmHg 85%
    05:00 +8°C° 0 mm 4 mps 756 mmHg 82%
    06:00 +8°C° 0 mm 5 mps 756 mmHg 79%
    07:00 +9°C° 0 mm 5 mps 757 mmHg 73%
    08:00 +10°C° 0 mm 5 mps 757 mmHg 67%
    09:00 +11°C° 0 mm 6 mps 758 mmHg 61%
    10:00 +13°C° 0.1 mm 6 mps 758 mmHg 60%
    11:00 +14°C° 0.1 mm 6 mps 759 mmHg 58%
    12:00 +14°C° 0.1 mm 6 mps 759 mmHg 57%
    13:00 +14°C° 0.1 mm 6 mps 759 mmHg 56%
    14:00 +15°C° 0.1 mm 6 mps 760 mmHg 56%
    15:00 +15°C° 0.1 mm 6 mps 760 mmHg 56%
    16:00 +14°C° 0.1 mm 5 mps 761 mmHg 59%
    17:00 +14°C° 0.1 mm 5 mps 761 mmHg 62%
    18:00 +13°C° 0.1 mm 4 mps 761 mmHg 64%
    19:00 +12°C° 0 mm 3 mps 762 mmHg 71%
    20:00 +12°C° 0 mm 2 mps 762 mmHg 77%
    21:00 +9°C° 0 mm 2 mps 763 mmHg 84%
    22:00 +8°C° 0 mm 2 mps 763 mmHg 86%
    23:00 +8°C° 0 mm 2 mps 763 mmHg 87%

    Day after tomorrow, 22 June, Saturday

    Time Temperature Precipitation Wind Pressure Humidity
    00:00 +7°C° 0 mm 2 mps 763 mmHg 89%
    01:00 +7°C° 0 mm 2 mps 763 mmHg 90%
    02:00 +7°C° 0 mm 2 mps 763 mmHg 90%
    03:00 +6°C° 0 mm 2 mps 763 mmHg 91%
    04:00 +8°C° 0 mm 1 mps 763 mmHg 85%
    05:00 +10°C° 0 mm 1 mps 763 mmHg 79%
    06:00 +11°C° 0 mm 1 mps 763 mmHg 73%
    07:00 +11°C° 0.1 mm 1 mps 763 mmHg 75%
    08:00 +11°C° 0.1 mm 1 mps 764 mmHg 77%
    09:00 +12°C° 0.1 mm 1 mps 764 mmHg 79%
    10:00 +13°C° 0.1 mm 1 mps 764 mmHg 78%
    11:00 +13°C° 0.1 mm 2 mps 764 mmHg 77%
    12:00 +14°C° 0.1 mm 2 mps 764 mmHg 76%
    13:00 +15°C° 0.1 mm 2 mps 764 mmHg 73%
    14:00 +16°C° 0.1 mm 2 mps 764 mmHg 69%
    15:00 +17°C° 0.1 mm 2 mps 764 mmHg 65%
    16:00 +18°C° 0.3 mm 1 mps 764 mmHg 69%
    17:00 +18°C° 0.3 mm 1 mps 764 mmHg 74%
    18:00 +16°C° 0.3 mm 1 mps 764 mmHg 78%
    19:00 +15°C° 0.1 mm 1 mps 764 mmHg 82%
    20:00 +14°C° 0.1 mm 1 mps 764 mmHg 86%
    21:00 +13°C° 0.1 mm 1 mps 765 mmHg 90%
    22:00 +12°C° 0 mm 0 mps 765 mmHg 90%
    23:00 +11°C° 0 mm 0 mps 764 mmHg 90%

    23 June, Sunday

    Time Temperature Precipitation Wind Pressure Humidity
    00:00 +11°C° 0 mm 0 mps 764 mmHg 91%
    01:00 +11°C° 0 mm 0 mps 764 mmHg 91%
    02:00 +11°C° 0 mm 0 mps 764 mmHg 92%
    03:00 +11°C° 0 mm 0 mps 765 mmHg 92%
    04:00 +11°C° 0 mm 0 mps 764 mmHg 91%
    05:00 +12°C° 0 mm 0 mps 764 mmHg 91%
    06:00 +12°C° 0 mm 0 mps 764 mmHg 90%
    07:00 +14°C° 0 mm 1 mps 765 mmHg 87%
    08:00 +15°C° 0 mm 1 mps 765 mmHg 84%
    09:00 +16°C° 0 mm 1 mps 765 mmHg 81%
    10:00 +17°C° 0.3 mm 2 mps 765 mmHg 78%
    11:00 +17°C° 0.3 mm 2 mps 765 mmHg 76%
    12:00 +18°C° 0.3 mm 3 mps 765 mmHg 73%
    13:00 +18°C° 0.5 mm 3 mps 765 mmHg 73%
    14:00 +18°C° 0.5 mm 3 mps 765 mmHg 74%
    15:00 +18°C° 0.5 mm 2 mps 765 mmHg 74%
    16:00 +18°C° 0.3 mm 2 mps 765 mmHg 78%
    17:00 +17°C° 0.3 mm 2 mps 765 mmHg 83%
    18:00 +16°C° 0.3 mm 1 mps 765 mmHg 87%
    19:00 +16°C° 0.1 mm 1 mps 766 mmHg 89%
    20:00 +15°C° 0.1 mm 1 mps 766 mmHg 91%
    21:00 +13°C° 0.1 mm 0 mps 767 mmHg 93%
    22:00 +13°C° 0 mm 0 mps 767 mmHg 94%
    23:00 +14°C° 0 mm 1 mps 767 mmHg 94%

    24 June, Monday

    Time Temperature Precipitation Wind Pressure Humidity
    00:00 +13°C° 0 mm 1 mps 767 mmHg 94%
    01:00 +13°C° 0 mm 1 mps 767 mmHg 94%
    02:00 +12°C° 0 mm 1 mps 767 mmHg 95%
    03:00 +11°C° 0 mm 1 mps 767 mmHg 95%
    04:00 +12°C° 0 mm 1 mps 767 mmHg 94%
    05:00 +12°C° 0 mm 1 mps 767 mmHg 93%
    06:00 +13°C° 0 mm 1 mps 767 mmHg 92%
    07:00 +14°C° 0 mm 2 mps 767 mmHg 86%
    08:00 +14°C° 0 mm 3 mps 767 mmHg 79%
    09:00 +15°C° 0 mm 4 mps 767 mmHg 72%
    10:00 +15°C° 0 mm 4 mps 767 mmHg 72%
    11:00 +17°C° 0 mm 4 mps 767 mmHg 71%
    12:00 +17°C° 0 mm 4 mps 767 mmHg 70%
    13:00 +15°C° 1.1 mm 4 mps 767 mmHg 79%
    14:00 +14°C° 1.1 mm 4 mps 767 mmHg 87%
    15:00 +13°C° 1.1 mm 4 mps 768 mmHg 95%
    16:00 +13°C° 1.6 mm 4 mps 768 mmHg 96%
    17:00 +13°C° 1.6 mm 4 mps 768 mmHg 97%
    18:00 +13°C° 1.6 mm 4 mps 768 mmHg 97%
    19:00 +12°C° 1.2 mm 4 mps 768 mmHg 97%
    20:00 +12°C° 1.2 mm 5 mps 769 mmHg 97%
    21:00 +12°C° 1.2 mm 5 mps 769 mmHg 97%
    22:00 +12°C° 0.3 mm 5 mps 769 mmHg 97%
    23:00 +12°C° 0.3 mm 4 mps 770 mmHg 97%

    25 June, Tuesday

    Time Temperature Precipitation Wind Pressure Humidity
    00:00 +11°C° 0.3 mm 4 mps 770 mmHg 97%
    01:00 +11°C° 0.1 mm 4 mps 770 mmHg 97%
    02:00 +11°C° 0.1 mm 4 mps 770 mmHg 96%
    03:00 +11°C° 0.1 mm 4 mps 770 mmHg 96%
    04:00 +11°C° 0 mm 4 mps 770 mmHg 95%
    05:00 +11°C° 0 mm 4 mps 770 mmHg 95%
    06:00 +11°C° 0 mm 4 mps 770 mmHg 94%
    07:00 +12°C° 0 mm 4 mps 770 mmHg 90%
    08:00 +13°C° 0 mm 5 mps 770 mmHg 87%
    09:00 +13°C° 0 mm 5 mps 770 mmHg 83%
    10:00 +14°C° 0 mm 5 mps 770 mmHg 81%
    11:00 +14°C° 0 mm 5 mps 770 mmHg 79%
    12:00 +15°C° 0 mm 5 mps 770 mmHg 76%
    13:00 +14°C° 0.1 mm 5 mps 770 mmHg 80%
    14:00 +13°C° 0.1 mm 4 mps 770 mmHg 84%
    15:00 +13°C° 0.1 mm 4 mps 770 mmHg 88%
    16:00 +13°C° 0 mm 4 mps 770 mmHg 88%
    17:00 +13°C° 0 mm 4 mps 770 mmHg 89%
    18:00 +13°C° 0 mm 4 mps 770 mmHg 90%
    19:00 +12°C° 0 mm 4 mps 770 mmHg 91%
    20:00 +12°C° 0 mm 4 mps 770 mmHg 93%
    21:00 +11°C° 0 mm 3 mps 771 mmHg 94%
    22:00 +11°C° 0 mm 3 mps 770 mmHg 95%
    23:00 +11°C° 0 mm 3 mps 770 mmHg 95%
    Show more